[[{"header":{"parameterUnit":"m.s-1","parameterCategory":1,"la1":30.2991,"la2":30.254,"lo1":-89.0895,"lo2":-89.0444,"dy":0.0017,"dx":0.0017,"nx":28,"ny":28,"refTime":"2024-06-28T03:00:00:Z","depth":0,"parameterNumber":2,"parameterNumberName":"U-component_of_WINDS"},"data":[0,0,0,0,0,0,0,0,0,0,0,0,0,0,0,0,0,0,0,0,0,0,0,0,0,0,0,0,0,0,0,0,0,0,0,0,0,0,0,0,0,0,0,0,0,0,0,0,0,0,0,0,0,0,0,0,0,0,2.8054,2.8054,0,2.8082,2.8082,2.8082,2.802,2.8018,2.8016,2.8014,2.8043,2.8046,2.8049,0,0,0,0,0,0,0,0,0,0,0,0,0,2.7944,2.7946,2.8054,2.8054,2.8054,2.8082,2.8082,2.8083,2.802,2.8018,2.8016,2.8013,2.8043,2.8046,2.8049,0,0,0,0,0,0,0,0,0,0,0,0,0,2.7984,2.7947,2.8053,2.8027,2.8024,2.8082,2.8082,2.8083,2.8021,2.8018,2.8015,2.8012,2.8041,2.8045,2.8049,2.8134,0,0,2.8061,2.8063,0,0,0,0,0,0,0,0,2.7981,2.7988,2.803,2.8029,2.8026,2.8044,2.8054,2.81,2.8022,2.8022,2.8014,2.8011,2.8046,2.805,2.8061,2.8135,2.8137,2.8062,2.8064,2.8066,2.8067,0,0,0,0,0,0,0,2.7979,2.7986,2.8065,2.8031,2.8028,2.8012,2.8015,2.8062,2.8051,2.8022,2.8018,2.8022,2.8044,2.8058,2.8062,2.8137,2.8062,2.8065,2.8068,2.8069,2.8277,2.828,0,0,0,0,0,0,2.7979,2.7984,2.8064,2.8066,2.7996,2.8017,2.8019,2.8042,2.805,2.8048,2.8024,2.8019,2.8052,2.8057,2.8062,2.8158,2.8066,2.807,2.8072,2.8274,2.8277,2.8281,0,0,0,0,0,0,2.7977,2.7987,2.8063,2.8024,2.8032,2.8022,2.8047,2.8044,2.8057,2.8052,2.8049,2.804,2.805,2.8057,2.8115,2.8158,2.8071,2.8075,2.827,2.8275,2.8279,2.8353,0,0,0,0,0,0,2.7974,2.7987,2.802,2.8025,2.8034,2.8116,2.805,2.8046,2.8064,2.8057,2.8066,2.8065,2.8048,2.811,2.8119,2.8162,2.8078,2.8266,2.8272,2.8278,2.8347,2.836,2.8371,0,0,0,0,0,2.7971,2.8041,2.8022,2.8032,2.8075,2.8119,2.8124,2.8104,2.8068,2.81,2.8096,2.8064,2.8153,2.8116,2.8127,2.8171,2.8263,2.827,2.8277,2.8341,2.8357,2.837,0,0,0,0,0,0,2.8042,2.8041,2.802,2.8094,2.8107,2.8108,2.8148,2.8122,2.8146,2.8139,2.8113,2.8115,2.8178,2.8181,2.814,2.8251,2.8202,2.8211,2.8247,2.8262,2.8274,2.827,2.8081,0,0,0,0,0,2.8066,2.8102,2.8099,2.8164,2.8172,2.8159,2.8177,2.816,2.8173,2.8178,2.8179,2.8192,2.8222,2.8243,2.8271,2.8348,2.8346,2.8383,2.8395,2.8405,2.8413,2.8449,2.8464,2.8304,2.8304,2.8304,0,0,2.8116,2.812,2.8145,2.8178,2.8186,2.8222,2.8164,2.8206,2.8232,2.8185,2.8238,2.824,2.8252,2.8319,2.8349,2.8324,2.8457,2.8414,2.8422,2.8424,2.8458,2.8473,2.8486,2.8309,2.8308,2.8307,0,0,2.8226,2.8234,2.8286,2.8295,2.8307,2.8298,2.8311,2.8316,2.8314,2.8368,2.8332,2.8362,2.8417,2.8425,2.8437,2.8547,2.8517,2.8557,2.8619,2.8655,2.8667,2.8678,2.8713,2.8727,2.8565,2.8565,2.8565,0,2.8286,2.834,2.8317,2.836,2.8374,2.8332,2.8384,2.8394,2.8415,2.8425,2.8397,2.8461,2.8467,2.8533,2.8559,2.8572,2.8583,2.8554,2.8667,2.8678,2.8688,2.8721,2.8735,2.857,2.8569,2.8569,2.8568,0,2.8411,2.8449,2.849,2.8509,2.8528,2.8576,2.8559,2.8582,2.8563,2.8556,2.8609,2.8615,2.8641,2.8656,2.864,2.8719,2.8702,2.8672,2.862,2.8708,2.8738,2.8751,2.8576,2.8574,2.8573,2.8572,0,0,2.8566,2.857,2.8585,2.8592,2.8601,2.8629,2.8673,2.8698,2.8716,2.8732,2.8766,2.8812,2.8781,2.8795,2.8778,2.8811,2.8891,2.8775,2.8775,2.8793,2.8975,2.8995,2.9011,2.8873,2.8875,2.8877,2.8972,0,2.8671,2.8746,2.8725,2.88,2.8831,2.8791,2.8829,2.8838,2.8833,2.8858,2.8853,2.8883,2.8844,2.8851,2.8881,2.8875,2.8927,2.8869,2.8902,2.8904,2.8897,2.9027,2.905,2.9139,2.8985,2.8987,2.8988,0,2.8803,2.8821,2.8898,2.8898,2.891,2.8945,2.8964,2.899,2.8998,2.8992,2.9005,2.8982,2.9023,2.8974,2.9029,2.899,2.9003,2.9002,2.9005,2.9004,2.8949,2.9027,2.9168,2.918,2.9008,2.9006,2.9005,0,2.8902,2.8946,2.8997,2.9004,2.9007,2.9031,2.9033,2.9039,2.9054,2.9071,2.908,2.9102,2.9114,2.9131,2.9113,2.9079,2.917,2.912,2.9163,2.9163,2.9181,2.918,2.9323,2.9196,2.9196,2.9196,2.9195,0,2.9018,2.9066,2.9041,2.9071,2.9123,2.9099,2.915,2.9148,2.9153,2.9181,2.9149,2.9177,2.9153,2.9178,2.9165,2.921,2.9217,2.9211,2.9206,2.9212,2.9212,2.9217,2.9209,2.9199,2.9199,2.9198,2.9197,0,2.9137,2.9123,2.9174,2.9171,2.9172,2.9209,2.9206,2.9234,2.9226,2.9262,2.9269,2.9256,2.9283,2.9267,2.9297,2.9287,2.9345,2.9334,2.9342,2.9337,2.938,2.9374,2.9528,2.9545,2.9411,2.9413,2.9414,0,2.9211,2.9246,2.9246,2.9262,2.9265,2.9293,2.9307,2.9284,2.93,2.9311,2.9337,2.9361,2.9379,2.9424,2.9417,2.9438,2.9424,2.9477,2.9427,2.943,2.942,2.9417,2.9418,2.9486,2.9487,2.9489,2.949,0,2.9341,2.9331,2.9352,2.937,2.9388,2.9401,2.9412,2.9427,2.9404,2.9424,2.945,2.9464,2.9492,2.9516,2.9533,2.9535,2.9507,2.9506,2.9516,2.952,2.9522,2.9517,2.9365,2.9502,2.9501,2.95,2.9499,2.9499,2.9436,2.9464,2.9467,2.9491,2.9496,2.9506,2.953,2.9524,2.9546,2.9565,2.9551,2.9582,2.9587,2.9607,2.9612,2.9635,2.9614,2.963,2.9633,2.9636,2.964,2.9521,2.9639,2.9638,2.9638,2.9638,2.9637,0,2.9561,2.956,2.9583,2.9597,2.9615,2.9588,2.9598,2.9615,2.9642,2.9649,2.9666,2.9695,2.9717,2.9711,2.9731,2.975,2.9738,2.9755,2.9752,2.9752,2.966,2.9647,2.9765,2.9764,2.9764,2.9764,2.9764,2.9764,2.9628,2.9671,2.9661,2.9707,2.9706,2.9734,2.9742,2.975,2.9755,2.9788,2.9805,2.9801,2.9802,2.9821,2.9839,2.9837,2.9843,2.9865,2.9858,2.9772,2.9759,2.9747,2.9734,2.9868,2.9868,2.9946,2.9947,2.9948]},{"header":{"parameterUnit":"m.s-1","parameterCategory":1,"la1":30.2991,"la2":30.254,"lo1":-89.0895,"lo2":-89.0444,"dy":0.0017,"dx":0.0017,"nx":28,"ny":28,"refTime":"2024-06-28T03:00:00:Z","depth":0,"parameterNumber":3,"parameterNumberName":"V-component_of_WINDS"},"data":[0,0,0,0,0,0,0,0,0,0,0,0,0,0,0,0,0,0,0,0,0,0,0,0,0,0,0,0,0,0,0,0,0,0,0,0,0,0,0,0,0,0,0,0,0,0,0,0,0,0,0,0,0,0,0,0,0,0,6.3282,6.3283,0,6.3392,6.3393,6.3394,6.3338,6.3336,6.3333,6.333,6.3437,6.3443,6.3448,0,0,0,0,0,0,0,0,0,0,0,0,0,6.3018,6.3023,6.3282,6.3283,6.3285,6.3391,6.3393,6.3394,6.3339,6.3335,6.3332,6.3329,6.3436,6.3442,6.3449,0,0,0,0,0,0,0,0,0,0,0,0,0,6.3131,6.3025,6.3282,6.327,6.327,6.3391,6.3393,6.3395,6.334,6.3335,6.3331,6.3327,6.3433,6.3441,6.345,6.3587,0,0,6.3475,6.3479,0,0,0,0,0,0,0,0,6.3124,6.314,6.327,6.3271,6.3271,6.3347,6.3339,6.3459,6.3341,6.3313,6.333,6.3325,6.341,6.342,6.345,6.3592,6.3597,6.3476,6.3481,6.3484,6.3487,0,0,0,0,0,0,0,6.3117,6.3135,6.3325,6.3272,6.3273,6.3257,6.3268,6.3362,6.3384,6.3315,6.3311,6.3325,6.341,6.3442,6.3452,6.3598,6.3475,6.3483,6.3488,6.3491,6.3854,6.3859,0,0,0,0,0,0,6.311,6.3129,6.3322,6.3329,6.3186,6.3265,6.3278,6.3327,6.3383,6.3388,6.3329,6.3322,6.343,6.3443,6.3456,6.3618,6.3484,6.3492,6.3497,6.385,6.3855,6.386,0,0,0,0,0,0,6.3105,6.3128,6.3317,6.3228,6.3251,6.3275,6.333,6.3331,6.3364,6.3394,6.3397,6.3359,6.3427,6.3444,6.3554,6.3621,6.3496,6.3503,6.3844,6.3851,6.3858,6.3945,0,0,0,0,0,0,6.3097,6.3126,6.3181,6.323,6.3256,6.3416,6.3334,6.3337,6.3379,6.3371,6.3422,6.3427,6.3425,6.3542,6.3563,6.363,6.351,6.3838,6.3847,6.3856,6.3936,6.3954,6.3969,0,0,0,0,0,6.3088,6.32,6.3184,6.3207,6.3325,6.342,6.3435,6.3433,6.3385,6.3438,6.3457,6.3425,6.3611,6.3554,6.3576,6.3647,6.3834,6.3845,6.3855,6.3929,6.395,6.3969,0,0,0,0,0,0,6.3158,6.3207,6.3189,6.3321,6.3367,6.3411,6.3478,6.3456,6.3516,6.3506,6.3499,6.3511,6.3625,6.3647,6.3583,6.3781,6.3714,6.373,6.3763,6.3784,6.38,6.3791,6.3517,0,0,0,0,0,6.3188,6.3264,6.3302,6.3415,6.3439,6.3455,6.3496,6.3491,6.3537,6.3556,6.3583,6.3628,6.3696,6.3741,6.3806,6.3939,6.3948,6.3999,6.4015,6.4029,6.4042,6.411,6.4133,6.3895,6.3895,6.3894,0,0,6.3252,6.3289,6.3337,6.3429,6.3465,6.354,6.3472,6.3556,6.3611,6.3569,6.3674,6.3695,6.3745,6.3866,6.3921,6.3888,6.4109,6.4042,6.4053,6.4058,6.4123,6.4146,6.4166,6.3902,6.3901,6.3899,0,0,6.3408,6.3444,6.354,6.3577,6.3631,6.364,6.3664,6.3711,6.3723,6.3829,6.3798,6.3863,6.3982,6.4017,6.4051,6.4217,6.4189,6.4238,6.4324,6.4391,6.441,6.4427,6.4483,6.4504,6.4251,6.4252,6.4252,0,6.348,6.3595,6.3592,6.3678,6.3718,6.3684,6.378,6.3815,6.3887,6.3915,6.3877,6.4023,6.4055,6.4182,6.4223,6.4252,6.4276,6.4232,6.4408,6.4425,6.444,6.4494,6.4515,6.4257,6.4257,6.4256,6.4255,0,6.368,6.376,6.3831,6.3902,6.395,6.4041,6.4049,6.4098,6.4087,6.41,6.4206,6.4242,6.4312,6.4342,6.4333,6.4468,6.4446,6.4409,6.4341,6.4468,6.4518,6.4539,6.4265,6.4263,6.4261,6.426,0,0,6.3882,6.3949,6.3975,6.4006,6.4062,6.4123,6.421,6.428,6.432,6.4371,6.4442,6.4542,6.4507,6.4546,6.4539,6.4599,6.4724,6.4554,6.4555,6.4582,6.4872,6.4898,6.4923,6.4707,6.4711,6.4714,6.4867,0,6.4039,6.4194,6.4193,6.4335,6.4407,6.4375,6.445,6.4491,6.4505,6.4566,6.458,6.465,6.4601,6.4623,6.4681,6.4697,6.4782,6.4686,6.477,6.4773,6.4757,6.4949,6.4978,6.5121,6.4887,6.489,6.4893,0,6.4244,6.4301,6.4451,6.4494,6.4524,6.4592,6.4654,6.4714,6.4759,6.4764,6.4807,6.4791,6.4876,6.4807,6.4924,6.4859,6.4892,6.4906,6.4911,6.4917,6.484,6.4958,6.5167,6.5188,6.4924,6.4922,6.492,0,6.4373,6.4488,6.4591,6.4619,6.4672,6.4721,6.4745,6.4786,6.4827,6.488,6.4906,6.4969,6.5003,6.505,6.5051,6.5001,6.5167,6.5099,6.5172,6.5172,6.5207,6.5205,6.5422,6.5233,6.5233,6.5232,6.5232,0,6.4547,6.464,6.4649,6.4713,6.4814,6.481,6.491,6.4929,6.4966,6.503,6.5006,6.5067,6.5065,6.5126,6.5126,6.5221,6.5237,6.5242,6.524,6.5243,6.5242,6.5264,6.5253,6.5238,6.5237,6.5236,6.5235,0,6.4709,6.472,6.483,6.4871,6.4884,6.4956,6.4991,6.5049,6.506,6.5142,6.5161,6.5178,6.5248,6.5253,6.5335,6.5335,6.5449,6.5438,6.5434,6.5431,6.5503,6.5495,6.574,6.5771,6.5564,6.5566,6.5568,0,6.4819,6.4889,6.4937,6.498,6.5007,6.5075,6.5117,6.5115,6.5159,6.5214,6.5265,6.5334,6.5388,6.5501,6.5519,6.558,6.5569,6.5651,6.5578,6.5577,6.5567,6.5562,6.5568,6.5664,6.5666,6.5668,6.567,0,6.5011,6.5013,6.5074,6.5137,6.5188,6.5237,6.5283,6.5318,6.5322,6.5372,6.5444,6.5486,6.5568,6.5635,6.5695,6.5717,6.5693,6.5693,6.5712,6.5715,6.5709,6.571,6.547,6.5687,6.5685,6.5684,6.5683,6.5682,6.5148,6.5208,6.5251,6.532,6.5354,6.5397,6.5454,6.5472,6.5532,6.56,6.5595,6.5674,6.5714,6.5791,6.5818,6.5878,6.5851,6.588,6.5887,6.5893,6.59,6.5701,6.589,6.5889,6.5889,6.5888,6.5888,0,6.5338,6.5364,6.5427,6.5492,6.5545,6.5519,6.5568,6.5614,6.5684,6.5724,6.5778,6.5859,6.5923,6.5946,6.6008,6.6051,6.6042,6.6067,6.6063,6.6068,6.5922,6.5898,6.6074,6.6074,6.6074,6.6074,6.6074,6.6074,6.5442,6.5541,6.5547,6.5661,6.5686,6.5764,6.5793,6.5832,6.5864,6.5956,6.6009,6.6024,6.6056,6.612,6.6177,6.6182,6.6204,6.6234,6.6234,6.6097,6.6079,6.6061,6.6038,6.624,6.624,6.6374,6.6376,6.6377]}]]